#timestamp,LO_Frequency,Hit,StdDev 
1698818415.3,286046993.0,N
1698818435.1,286046995.8,N
1698818455.9,286046997.8,N
1698818475.7,286046993.4,N
1698818495.6,286046995.3,N
1698818515.4,286046995.8,N
1698818535.2,286046997.3,N
1698818555.1,286046992.4,N
1698818556.0,286046992.4,N
1698818575.8,286046990.7,N
1698818595.6,286046989.0,N
1698818615.5,286046992.0,N
1698818635.3,286046994.1,N
1698818655.2,286046995.0,N
1698818675.9,286046998.5,N
1698818695.7,286047002.2,N
1698818715.6,286047003.3,N
1698818735.4,286047010.0,N
1698818755.2,286047012.4,N
1698818775.1,286047012.8,N
1698818776.0,286047012.8,N
1698818795.8,286047010.1,N
1698818815.7,286047011.8,N
1698818835.5,286047013.5,N
1698818855.3,286047011.3,N
1698818875.2,286047014.7,N
1698818895.0,286047016.8,N
1698818895.9,286047016.8,N
1698818915.7,286047018.4,N
1698818935.6,286047019.9,N
1698818955.4,286047020.4,N
1698818975.3,286047017.9,N
1698818995.1,286047021.4,N
1698818996.0,286047021.4,N
1698819015.8,286047019.5,N
1698819035.7,286047024.1,N
1698819055.5,286047026.7,N
1698819075.3,286047020.2,N
1698819095.2,286047018.2,N
1698819115.0,286047021.8,N
1698819115.9,286047021.8,N
1698819135.8,286047024.6,N
1698819155.6,286047025.0,N
1698819175.4,286047022.9,N
1698819195.3,286047022.7,Y
1698819215.1,286047005.7,P
1698819235.9,286047008.1,N
1698819255.7,286047007.5,N
1698819275.5,286047005.3,N
1698819295.4,286047004.9,N
1698819315.2,286047006.7,N
1698819335.0,286047009.2,N
1698819335.9,286047009.2,N
1698819355.8,286047008.3,N
1698819375.6,286047012.4,Y
1698819395.5,286047001.3,P
1698819415.3,286047001.4,N
1698819435.1,286047011.9,P
1698819455.9,286047004.2,N
1698819475.7,286047003.6,N
1698819495.5,286047000.5,N
1698819515.4,286046996.3,N
1698819535.2,286046990.8,N
1698819555.1,286046991.5,N
1698819556.0,286046991.5,N
1698819575.8,286046994.0,N
1698819595.6,286046996.1,N
1698819615.5,286046997.3,N
1698819635.3,286046998.0,N
1698819655.1,286046997.5,N
1698819675.9,286046996.6,N
1698819695.7,286046997.3,N
1698819715.6,286047000.7,N
1698819735.4,286047007.5,N
1698819755.2,286047001.8,N
1698819775.1,286046999.0,N
1698819776.0,286046999.0,N
1698819795.8,286046996.7,N
1698819815.6,286047001.2,N
1698819835.5,286046998.3,N
1698819855.3,286047004.2,N
1698819875.2,286047000.8,N
1698819895.9,286046999.5,N
1698819915.7,286046998.5,N
1698819935.6,286046998.7,N
1698819955.4,286047001.1,N
1698819975.2,286047002.4,N
1698819995.1,286047007.6,N
1698819996.0,286047007.6,N
1698820015.8,286047006.8,N
1698820035.7,286047009.3,N
1698820055.5,286047015.1,Y
1698820075.3,286047015.1,P
1698820095.2,286047009.9,N
1698820115.0,286047009.6,N
1698820115.9,286047009.6,N
1698820135.8,286047008.3,N
1698820155.6,286047008.5,N
1698820175.4,286047010.3,N
1698820195.3,286047007.0,N
1698820215.1,286047000.8,N
1698820235.8,286046999.6,N
1698820255.7,286046998.1,N
1698820275.5,286046998.9,N
1698820295.4,286046996.9,N
1698820315.2,286046991.9,N
1698820335.0,286046994.6,N
1698820335.9,286046994.6,N
1698820355.8,286046993.5,N
1698820375.6,286046996.4,N
1698820395.4,286046995.1,N
1698820415.3,286046995.6,N
1698820435.1,286046996.2,N
1698820455.9,286046996.9,N
1698820475.7,286046996.8,N
1698820495.5,286047000.0,N
1698820515.4,286047001.1,N
1698820535.2,286046997.8,N
1698820555.0,286046995.6,N
1698820555.9,286046995.6,N
1698820575.8,286046994.6,N
1698820595.6,286046991.6,N
1698820615.5,286046987.7,N
1698820635.3,286046988.6,N
1698820655.1,286046993.2,N
1698820675.9,286046988.1,N
1698820695.7,286046988.3,N
1698820715.5,286046987.7,N
1698820735.4,286046987.8,N
1698820755.2,286046987.3,N
1698820775.1,286046987.8,N
1698820776.0,286046987.8,N
1698820795.8,286046988.6,N
1698820815.6,286046993.2,N
1698820835.5,286046995.9,N
1698820855.3,286047002.8,N
1698820875.1,286047003.8,N
1698820895.9,286047007.1,N
1698820915.7,286047006.3,N
1698820935.6,286047010.3,N
1698820955.4,286047009.9,N
1698820975.2,286047010.4,N
1698820995.1,286047007.9,N
1698820996.0,286047007.9,N
1698821015.8,286047008.7,N
1698821035.7,286047008.9,N
1698821055.5,286047010.2,N
1698821075.3,286047010.4,N
1698821095.2,286047008.4,N
1698821115.0,286047008.2,N
1698821115.9,286047008.2,N
1698821135.8,286047008.3,N
1698821155.6,286047011.3,N
1698821175.4,286047009.9,N
1698821195.3,286047003.2,N
1698821215.1,286047005.3,N
1698821235.8,286047002.3,N
1698821255.7,286047001.5,N
1698821275.5,286047005.8,N
1698821295.4,286047003.5,N
1698821315.2,286047004.3,N
1698821335.0,286046998.3,N
1698821335.9,286046998.3,N
1698821355.8,286046998.7,N
1698821375.6,286046999.1,N
1698821395.4,286046996.9,N
1698821415.3,286046997.4,N
1698821435.1,286046996.6,N
1698821455.9,286046998.2,N
1698821475.7,286047000.7,N
1698821495.5,286046999.9,N
1698821515.4,286047000.9,N
1698821535.2,286047001.1,N
1698821555.0,286046996.5,N
1698821555.9,286046996.5,N
1698821575.8,286046998.9,N
1698821595.6,286047003.2,N
1698821615.5,286047005.6,N
1698821635.3,286047001.3,N
1698821655.1,286047007.3,N
1698821675.9,286047000.6,N
1698821695.7,286046998.6,N
1698821715.5,286046993.9,N
1698821735.4,286046993.5,N
1698821755.2,286046993.1,N
1698821775.1,286046993.7,N
1698821776.0,286046993.7,N
1698821795.8,286046997.6,N
1698821815.6,286046995.6,N
1698821835.5,286046995.6,N
1698821855.3,286047000.2,N
1698821875.1,286047001.2,N
1698821895.9,286047000.8,N
1698821915.7,286046999.9,N
1698821935.6,286047003.5,N
1698821955.4,286047006.7,N
1698821975.2,286047004.7,N
1698821995.1,286047007.1,N
1698821996.0,286047007.1,N
